Location: Newark
(46.7636°N, 1.8358°W)
Time: 18:43:15
(UTC+00:00)

Vanguard 1 Rocket - Pass Details

Date: 26 October 2019
Orbit: 651 x 4225 km, 34.3° (Epoch: 11 November)

Event Time Altitude Azimuth Distance (km) Brightness Sun altitude
Rises 13:11:07 0° 269° (W) 6,041 11.9 28.1°
Reaches altitude 10° 13:14:35 10° 264° (W) 5,423 11.8 27.9°
Maximum altitude 13:31:39 50° 197° (SSW) 4,400 12.3 26.7°
Drops below altitude 10° 13:55:51 10° 131° (SE) 7,377 12.2 24.5°
Sets 14:01:41 0° 127° (SE) 8,255 12.3 24.0°
